DELTA 1 DEB, 40765

Orbit data source: Space-Track

DELTA 1 DEB, 40765 is space debris in SSO originally from a launch on Thu, 29 Jul 1976 UTC launched from the Air Force Western Test Range (AFWTR). Debris objects in space refer to the collection of defunct objects orbiting the Earth. Examples of debris include non-operational satellites, rocket bodies, and fragments generated from explosions, collisions, or faulty payload assembly.

Loading next visibility...
Identifier
40765, 1976-077GJ
Orbit
SSO
Country
Flag of USUS
Related business
Manufacturer
Unknown
Mission
Spacecraft
Bus & Motor
Unknown
Mass
Unknown
Launch date (UTC)
1976-07-29 (50 years ago)
Launch vehicle
Unknown
Launch site
Air Force Western Test Range (AFWTR)
Object type
Payload
Rocket body
Debris
Shape & HBR
Unknown shape, 0.1 m
Radar Cross Section
Small (<0.1 m²)

Expand to show TLE details & history
Last TLE update: 4 days ago

TLE from 4 days ago
0 DELTA 1 DEB
1 40765U 76077GJ  26101.48520905  .00000023  00000-0  48405-3 0  9991
2 40765 102.1657 102.3341 0028131 181.5356 178.5627 12.45446006562982
Epoch: 2026-04-11T11:38Z
TLE epoch observation values (Epoch: 2026-04-11T11:38:42.061Z)
Latitude
-0.00009°
Longitude
87.95502°
Altitude
1,508.263 km
Speed
7.101 km/s
True Right ascension
06h 49m 20s
True Declination
0° 00' 00"
Sunlit
Object was in daylight at epoch
Visualization orbit readout
Latitude
Unknown
Longitude
Unknown
Altitude
Unknown
Speed
Unknown
Apparent Right ascension
Unknown
Apparent Declination
Unknown
Sunlit
N/A
Visualization observer readout
Local Sidereal Time
10:24:56
Azimuth
Unknown
Elevation
Unknown
Doppler factor
Unknown
Orbital elements
Apogee altitude
1,503.288 km
Perigee altitude
1,459.07 km
Semi-major axis
7,859.316 km
Eccentricity
0.00281
Inclination
102.1657°
RAAN
102.3341°
Arg. of periapsis
181.5356°
True anomaly
178.57076°
Mean anomaly
178.5627°
Eccentric anomaly
178.56673°
Mean motion
3.11506 °/min
Orbital period
115.57 mins
BSTAR
0.00048405
Loading maneuver chart data...
Computing Atmospheric mass density...
Loading historical data...
Loading historical data...
Loading historical data...
Loading historical data...
Loading historical data...
Loading historical data...
Loading historical data...

Documentation

Showing up to 5 results
|